AAL317 TJSJ-KJFK

Flight info

Callsign AAL317
Flight time N/A
Altitude 36000
Route ACONY3 PALDE DCT DONQU/N0466F370 DCT LUCTI/M080F360 L454 SEBIS/M080F380 L454 OKONU/N0454F390 DCT YAALE Y495 MOUGH/N0457F380 Y495 CAMRN
Aircraft B738/M-SDE2E3FGHIRWXY/LB1

Departure

Time 2026-05-05 23:11
Airport Luis Munoz Marin International Airport (TJSJ)

Arrival

Time N/A
Airport John F. Kennedy International Airport (KJFK)
Time Latitude Longitude Altitude Speed Heading
2026-05-05 21:56 18.43549 -66.00701 -28 ft 0 kts
2026-05-05 22:59 18.43548 -66.00701 -28 ft 1 kts
2026-05-05 23:00 18.43498 -66.00699 -28 ft 4 kts 344°
2026-05-05 23:00 18.43476 -66.00687 -29 ft 4 kts 308°
2026-05-05 23:00 18.43467 -66.00667 -29 ft 1 kts 270°
2026-05-05 23:01 18.43467 -66.00662 -29 ft 1 kts 270°
2026-05-05 23:07 18.43467 -66.00678 -41 ft 8 kts 270°
2026-05-05 23:07 18.43467 -66.00772 -38 ft 7 kts 270°
2026-05-05 23:08 18.43467 -66.00822 -29 ft 7 kts 270°
2026-05-05 23:08 18.43467 -66.00871 -29 ft 7 kts 269°
2026-05-05 23:08 18.43466 -66.00934 -30 ft 11 kts 269°
2026-05-05 23:08 18.43468 -66.01023 -30 ft 12 kts 270°
2026-05-05 23:09 18.43468 -66.01114 -45 ft 13 kts 270°
2026-05-05 23:09 18.43467 -66.01195 -32 ft 10 kts 268°
2026-05-05 23:09 18.43466 -66.01268 -32 ft 10 kts 269°
2026-05-05 23:09 18.43466 -66.01290 -32 ft 0 kts 269°
2026-05-05 23:10 18.43466 -66.01296 -32 ft 7 kts 269°
2026-05-05 23:10 18.43420 -66.01357 -39 ft 13 kts 190°
2026-05-05 23:10 18.43364 -66.01311 -45 ft 12 kts 94°
2026-05-05 23:11 18.43357 -66.01125 -38 ft 56 kts 92°
2026-05-05 23:11 18.43354 -66.00453 -36 ft 127 kts 90°
2026-05-05 23:11 18.43347 -65.99317 95 ft 174 kts 88°
2026-05-05 23:11 18.43406 -65.98058 1024 ft 169 kts 84°
2026-05-05 23:12 18.43750 -65.96851 1828 ft 180 kts 62°
2026-05-05 23:12 18.44747 -65.95869 2118 ft 218 kts 23°
2026-05-05 23:12 18.46334 -65.95783 2370 ft 245 kts 342°
2026-05-05 23:12 18.47939 -65.96501 2808 ft 262 kts 337°
2026-05-05 23:13 18.49606 -65.97373 3310 ft 277 kts 332°
2026-05-05 23:13 18.51285 -65.98406 4200 ft 279 kts 330°
2026-05-05 23:13 18.52957 -65.99469 4779 ft 281 kts 330°
2026-05-05 23:13 18.54650 -66.00485 5378 ft 281 kts 332°
2026-05-05 23:14 18.56187 -66.01789 6186 ft 287 kts 311°
2026-05-05 23:14 18.57465 -66.03419 7077 ft 289 kts 309°
2026-05-05 23:14 18.58738 -66.05090 7840 ft 295 kts 309°
2026-05-05 23:14 18.60037 -66.06780 8655 ft 298 kts 309°
2026-05-05 23:15 18.61359 -66.08479 9422 ft 302 kts 310°
2026-05-05 23:15 18.62710 -66.10196 10186 ft 305 kts 310°
2026-05-05 23:15 18.64098 -66.11949 10617 ft 322 kts 310°
2026-05-05 23:15 18.65589 -66.13823 10802 ft 345 kts 310°
2026-05-05 23:16 18.67180 -66.15815 10967 ft 365 kts 310°
2026-05-05 23:16 18.68861 -66.17916 11128 ft 384 kts 310°
2026-05-05 23:16 18.70614 -66.20103 11445 ft 395 kts 310°
2026-05-05 23:16 18.72395 -66.22324 12021 ft 397 kts 310°
2026-05-05 23:17 18.74162 -66.24528 12650 ft 398 kts 310°
2026-05-05 23:17 18.75959 -66.26770 13258 ft 400 kts 309°
2026-05-05 23:17 18.77759 -66.29016 13831 ft 401 kts 309°
2026-05-05 23:17 18.79568 -66.31274 14399 ft 403 kts 309°
2026-05-05 23:18 18.81377 -66.33534 14945 ft 405 kts 309°
2026-05-05 23:18 18.83200 -66.35811 15466 ft 407 kts 309°
2026-05-05 23:18 18.85035 -66.38105 15994 ft 409 kts 309°
2026-05-05 23:18 18.86872 -66.40402 16524 ft 410 kts 309°
2026-05-05 23:19 18.88715 -66.42708 17023 ft 412 kts 309°
2026-05-05 23:19 18.90566 -66.45024 17513 ft 413 kts 309°
2026-05-05 23:19 18.92427 -66.47350 18003 ft 415 kts 309°
2026-05-05 23:19 18.94400 -66.49586 18471 ft 417 kts 314°
2026-05-05 23:20 18.96506 -66.51716 18857 ft 421 kts 316°
2026-05-05 23:20 18.98665 -66.53833 19195 ft 426 kts 316°
2026-05-05 23:20 19.00838 -66.55971 19574 ft 428 kts 315°
2026-05-05 23:20 19.03011 -66.58142 19964 ft 430 kts 315°
2026-05-05 23:21 19.05149 -66.60303 20322 ft 432 kts 315°
2026-05-05 23:21 19.07327 -66.62513 20625 ft 436 kts 315°
2026-05-05 23:21 19.09564 -66.64693 20951 ft 439 kts 317°
2026-05-05 23:21 19.11878 -66.66816 21277 ft 441 kts 318°
2026-05-05 23:22 19.14223 -66.68914 21551 ft 444 kts 319°
2026-05-05 23:22 19.16599 -66.71024 21854 ft 446 kts 319°
2026-05-05 23:22 19.18977 -66.73141 22160 ft 448 kts 319°
2026-05-05 23:22 19.21356 -66.75268 22442 ft 450 kts 319°
2026-05-05 23:23 19.23760 -66.77428 22694 ft 453 kts 319°
2026-05-05 23:23 19.26161 -66.79594 22977 ft 454 kts 319°
2026-05-05 23:23 19.28541 -66.81747 23227 ft 456 kts 318°
2026-05-05 23:23 19.30983 -66.83960 23477 ft 458 kts 318°
2026-05-05 23:24 19.33408 -66.86158 23720 ft 460 kts 318°
2026-05-05 23:24 19.35842 -66.88367 23929 ft 462 kts 319°
2026-05-05 23:24 19.38256 -66.90558 24145 ft 464 kts 319°
2026-05-05 23:24 19.40710 -66.92786 24374 ft 465 kts 318°
2026-05-05 23:25 19.43173 -66.95023 24582 ft 467 kts 318°
2026-05-05 23:25 19.45644 -66.97267 24821 ft 468 kts 318°
2026-05-05 23:25 19.48121 -66.99518 25031 ft 470 kts 318°
2026-05-05 23:25 19.50606 -67.01778 25221 ft 472 kts 318°
2026-05-05 23:26 19.53104 -67.04050 25435 ft 473 kts 318°
2026-05-05 23:26 19.55600 -67.06321 25634 ft 473 kts 318°
2026-05-05 23:26 19.58109 -67.08605 25821 ft 475 kts 318°
2026-05-05 23:26 19.60622 -67.10893 25972 ft 477 kts 318°
2026-05-05 23:27 19.63135 -67.13182 26157 ft 478 kts 318°
2026-05-05 23:27 19.65665 -67.15488 26347 ft 479 kts 317°
2026-05-05 23:27 19.68199 -67.17798 26552 ft 479 kts 317°
2026-05-05 23:27 19.70700 -67.20079 26739 ft 480 kts 317°
2026-05-05 23:28 19.73231 -67.22388 26974 ft 480 kts 317°
2026-05-05 23:28 19.75760 -67.24697 27211 ft 479 kts 317°
2026-05-05 23:28 19.78289 -67.27007 27476 ft 478 kts 317°
2026-05-05 23:28 19.80806 -67.29308 27766 ft 477 kts 317°
2026-05-05 23:29 19.83316 -67.31603 28047 ft 476 kts 317°
2026-05-05 23:29 19.85826 -67.33898 28297 ft 476 kts 317°
2026-05-05 23:29 19.88335 -67.36194 28558 ft 475 kts 316°
2026-05-05 23:29 19.90839 -67.38486 28863 ft 474 kts 316°
2026-05-05 23:30 19.93336 -67.40772 29149 ft 474 kts 316°
2026-05-05 23:30 19.95836 -67.43062 29422 ft 473 kts 316°
2026-05-05 23:30 19.98328 -67.45344 29709 ft 472 kts 316°
2026-05-05 23:30 20.00811 -67.47619 29970 ft 472 kts 316°
2026-05-05 23:31 20.03296 -67.49900 30243 ft 472 kts 316°
2026-05-05 23:31 20.05775 -67.52175 30571 ft 470 kts 316°
2026-05-05 23:31 20.08245 -67.54443 30890 ft 468 kts 316°
2026-05-05 23:31 20.10717 -67.56715 31168 ft 469 kts 316°
2026-05-05 23:32 20.13177 -67.58976 31457 ft 468 kts 315°
2026-05-05 23:32 20.15609 -67.61213 31767 ft 467 kts 315°
2026-05-05 23:32 20.18062 -67.63470 32048 ft 466 kts 315°
2026-05-05 23:32 20.20516 -67.65727 32313 ft 466 kts 315°
2026-05-05 23:33 20.22964 -67.67981 32616 ft 465 kts 315°
2026-05-05 23:33 20.25413 -67.70237 32909 ft 464 kts 315°
2026-05-05 23:33 20.27856 -67.72488 33166 ft 464 kts 315°
2026-05-05 23:33 20.30294 -67.74736 33455 ft 463 kts 315°
2026-05-05 23:34 20.32727 -67.76979 33739 ft 462 kts 315°
2026-05-05 23:34 20.35157 -67.79220 33985 ft 462 kts 315°
2026-05-05 23:34 20.37591 -67.81466 34241 ft 461 kts 315°
2026-05-05 23:34 20.40015 -67.83705 34506 ft 461 kts 315°
2026-05-05 23:35 20.42431 -67.85937 34816 ft 459 kts 315°
2026-05-05 23:35 20.44838 -67.88161 35098 ft 457 kts 315°
2026-05-05 23:35 20.47238 -67.90381 35344 ft 456 kts 315°
2026-05-05 23:35 20.49635 -67.92597 35593 ft 456 kts 315°
2026-05-05 23:36 20.52026 -67.94810 35860 ft 454 kts 314°
2026-05-05 23:36 20.54408 -67.97014 36116 ft 453 kts 314°
2026-05-05 23:36 20.56786 -67.99218 36328 ft 453 kts 314°
2026-05-05 23:36 20.59130 -68.01391 36537 ft 452 kts 314°
2026-05-05 23:37 20.61530 -68.03616 36788 ft 450 kts 314°
2026-05-05 23:37 20.63882 -68.05797 37081 ft 447 kts 314°
2026-05-05 23:37 20.66195 -68.07942 37405 ft 443 kts 314°
2026-05-05 23:37 20.68586 -68.10076 37727 ft 443 kts 320°
2026-05-05 23:38 20.71185 -68.11775 37978 ft 446 kts 328°
2026-05-05 23:38 20.74046 -68.13100 38006 ft 454 kts 336°
2026-05-05 23:38 20.80278 -68.14658 38026 ft 462 kts 343°
2026-05-05 23:39 20.86591 -68.15964 38031 ft 461 kts 344°
2026-05-05 23:39 20.92847 -68.17281 38021 ft 459 kts 343°
2026-05-05 23:40 20.99105 -68.18638 38031 ft 457 kts 343°
2026-05-05 23:40 21.05334 -68.20008 38025 ft 457 kts 343°
2026-05-05 23:41 21.11553 -68.21380 38026 ft 456 kts 343°
2026-05-05 23:41 21.17775 -68.22753 38030 ft 456 kts 343°
2026-05-05 23:42 21.22937 -68.23891 38029 ft 456 kts 343°
2026-05-05 23:42 21.29157 -68.25263 38028 ft 456 kts 343°
2026-05-05 23:43 21.35388 -68.26639 38028 ft 457 kts 343°
2026-05-05 23:43 21.41616 -68.28012 38023 ft 457 kts 343°
2026-05-05 23:44 21.47850 -68.29392 38030 ft 458 kts 343°
2026-05-05 23:44 21.54095 -68.30775 38028 ft 459 kts 343°
2026-05-05 23:45 21.60350 -68.32162 38027 ft 459 kts 343°
2026-05-05 23:45 21.66616 -68.33551 38026 ft 460 kts 343°
2026-05-05 23:46 21.72890 -68.34945 38029 ft 461 kts 343°
2026-05-05 23:46 21.79182 -68.36340 38025 ft 461 kts 343°
2026-05-05 23:47 21.85463 -68.37738 38030 ft 461 kts 343°
2026-05-05 23:47 21.91756 -68.39140 38033 ft 461 kts 343°
2026-05-05 23:48 21.97998 -68.40530 38037 ft 461 kts 343°
2026-05-05 23:48 22.04288 -68.41931 38037 ft 461 kts 343°
2026-05-05 23:49 22.10574 -68.43334 38036 ft 461 kts 343°
2026-05-05 23:49 22.16857 -68.44738 38037 ft 460 kts 343°
2026-05-05 23:50 22.23128 -68.46140 38036 ft 460 kts 343°
2026-05-05 23:50 22.29350 -68.47533 38037 ft 460 kts 343°
2026-05-05 23:51 22.35607 -68.48933 38037 ft 459 kts 343°
2026-05-05 23:51 22.41860 -68.50335 38037 ft 459 kts 343°
2026-05-05 23:52 22.48107 -68.51738 38038 ft 458 kts 343°
2026-05-05 23:52 22.54341 -68.53136 38035 ft 458 kts 343°
2026-05-05 23:53 22.60581 -68.54540 38046 ft 458 kts 343°
2026-05-05 23:53 22.66829 -68.55944 38049 ft 458 kts 343°
2026-05-05 23:54 22.73039 -68.57346 38048 ft 459 kts 343°
2026-05-05 23:54 22.79292 -68.58757 38053 ft 459 kts 343°
2026-05-05 23:55 22.85549 -68.60168 38057 ft 460 kts 343°
2026-05-05 23:55 22.91814 -68.61584 38056 ft 460 kts 343°
2026-05-05 23:56 22.98095 -68.63004 38054 ft 461 kts 343°
2026-05-05 23:56 23.04380 -68.64425 38056 ft 461 kts 343°
2026-05-05 23:57 23.10623 -68.65839 38057 ft 461 kts 343°
2026-05-05 23:57 23.16917 -68.67266 38047 ft 462 kts 343°
2026-05-05 23:58 23.23207 -68.68693 38044 ft 462 kts 343°
2026-05-05 23:58 23.29499 -68.70123 38047 ft 462 kts 343°
2026-05-05 23:59 23.35790 -68.71552 38047 ft 462 kts 343°
2026-05-05 23:59 23.42081 -68.72983 38045 ft 462 kts 343°
2026-05-06 00:00 23.48367 -68.74417 38046 ft 461 kts 343°
2026-05-06 00:00 23.54651 -68.75850 38044 ft 461 kts 343°
2026-05-06 00:01 23.60897 -68.77275 38048 ft 461 kts 343°
2026-05-06 00:01 23.67178 -68.78710 38046 ft 461 kts 343°
2026-05-06 00:02 23.73455 -68.80144 38045 ft 461 kts 343°
2026-05-06 00:02 23.79731 -68.81581 38059 ft 461 kts 343°
2026-05-06 00:03 23.86014 -68.83022 38056 ft 461 kts 343°
2026-05-06 00:03 23.92301 -68.84465 38056 ft 461 kts 343°
2026-05-06 00:04 23.98584 -68.85906 38054 ft 461 kts 343°
2026-05-06 00:04 24.04869 -68.87351 38055 ft 461 kts 343°
2026-05-06 00:05 24.14296 -68.89523 38058 ft 461 kts 343°
2026-05-06 00:06 24.20547 -68.90964 38054 ft 462 kts 343°
2026-05-06 00:06 24.26833 -68.92413 38056 ft 461 kts 343°
2026-05-06 00:07 24.33128 -68.93865 38056 ft 462 kts 343°
2026-05-06 00:07 24.39414 -68.95318 38055 ft 462 kts 343°
2026-05-06 00:08 24.45700 -68.96772 38056 ft 461 kts 342°
2026-05-06 00:08 24.51987 -68.98229 38055 ft 461 kts 343°
2026-05-06 00:09 24.58223 -68.99676 38055 ft 461 kts 343°
2026-05-06 00:09 24.64514 -69.01135 38055 ft 461 kts 343°
2026-05-06 00:10 24.70788 -69.02592 38055 ft 461 kts 343°
2026-05-06 00:10 24.77063 -69.04052 38060 ft 461 kts 343°
2026-05-06 00:11 24.83342 -69.05513 38055 ft 461 kts 342°
2026-05-06 00:11 24.89628 -69.06978 38058 ft 462 kts 342°
2026-05-06 00:12 24.95884 -69.08438 38055 ft 462 kts 342°
2026-05-06 00:12 25.02186 -69.09890 38055 ft 463 kts 343°
2026-05-06 00:13 25.08541 -69.11207 38060 ft 465 kts 344°
2026-05-06 00:13 25.14900 -69.12485 38055 ft 465 kts 344°
2026-05-06 00:14 25.21277 -69.13784 38056 ft 465 kts 344°
2026-05-06 00:14 25.27646 -69.15095 38054 ft 466 kts 344°
2026-05-06 00:15 25.34025 -69.16412 38054 ft 466 kts 344°
2026-05-06 00:15 25.40388 -69.17731 38056 ft 466 kts 343°
2026-05-06 00:16 25.46766 -69.19053 38055 ft 466 kts 344°
2026-05-06 00:16 25.53140 -69.20374 38055 ft 465 kts 343°
2026-05-06 00:17 25.59477 -69.21690 38057 ft 465 kts 343°
2026-05-06 00:17 25.65835 -69.23012 38063 ft 465 kts 343°
2026-05-06 00:18 25.72200 -69.24335 38066 ft 464 kts 343°
2026-05-06 00:18 25.78546 -69.25658 38064 ft 464 kts 343°
2026-05-06 00:19 25.84907 -69.26985 38067 ft 464 kts 343°
2026-05-06 00:19 25.91268 -69.28313 38060 ft 464 kts 343°
2026-05-06 00:20 25.97586 -69.29634 38066 ft 464 kts 343°
2026-05-06 00:20 26.03935 -69.30960 38060 ft 465 kts 343°
2026-05-06 00:21 26.10306 -69.32295 38069 ft 465 kts 343°
2026-05-06 00:21 26.16678 -69.33631 38066 ft 466 kts 343°
2026-05-06 00:22 26.23062 -69.34971 38065 ft 467 kts 343°
2026-05-06 00:22 26.29462 -69.36315 38067 ft 468 kts 343°
2026-05-06 00:23 26.35830 -69.37654 38067 ft 469 kts 343°
2026-05-06 00:23 26.42248 -69.39007 38062 ft 469 kts 343°
2026-05-06 00:24 26.48658 -69.40359 38064 ft 469 kts 343°
2026-05-06 00:24 26.55069 -69.41712 38065 ft 469 kts 343°
2026-05-06 00:25 26.61482 -69.43067 38064 ft 468 kts 343°
2026-05-06 00:25 26.67882 -69.44421 38058 ft 468 kts 343°
2026-05-06 00:26 26.74289 -69.45777 38054 ft 468 kts 343°
2026-05-06 00:26 26.80646 -69.47125 38060 ft 467 kts 343°
2026-05-06 00:27 26.87035 -69.48482 38071 ft 467 kts 343°
2026-05-06 00:27 26.93415 -69.49838 38084 ft 466 kts 343°
2026-05-06 00:28 26.99792 -69.51195 38090 ft 466 kts 343°
2026-05-06 00:28 27.06156 -69.52551 38081 ft 465 kts 343°
2026-05-06 00:29 27.12477 -69.53899 38087 ft 465 kts 343°
2026-05-06 00:29 27.18825 -69.55256 38099 ft 464 kts 343°
2026-05-06 00:30 27.25188 -69.56617 38089 ft 464 kts 343°
2026-05-06 00:30 27.30465 -69.57747 38096 ft 464 kts 343°
2026-05-06 00:31 27.36805 -69.59106 38092 ft 464 kts 343°
2026-05-06 00:31 27.43143 -69.60466 38090 ft 463 kts 343°
2026-05-06 00:32 27.49462 -69.61824 38098 ft 462 kts 343°
2026-05-06 00:32 27.55768 -69.63179 38091 ft 461 kts 343°
2026-05-06 00:33 27.62060 -69.64534 38090 ft 460 kts 343°
2026-05-06 00:33 27.68340 -69.65889 38090 ft 459 kts 343°
2026-05-06 00:34 27.74568 -69.67233 38094 ft 457 kts 343°
2026-05-06 00:34 27.80813 -69.68582 38096 ft 456 kts 343°
2026-05-06 00:35 27.87046 -69.69931 38092 ft 455 kts 343°
2026-05-06 00:35 27.93255 -69.71277 38093 ft 454 kts 343°
2026-05-06 00:36 27.99457 -69.72623 38093 ft 452 kts 343°
2026-05-06 00:36 28.05635 -69.73965 38100 ft 452 kts 343°
2026-05-06 00:37 28.11808 -69.75308 38106 ft 451 kts 343°
2026-05-06 00:37 28.17945 -69.76645 38114 ft 452 kts 343°
2026-05-06 00:38 28.24133 -69.77994 38110 ft 453 kts 343°
2026-05-06 00:38 28.30329 -69.79346 38112 ft 454 kts 343°
2026-05-06 00:39 28.36538 -69.80704 38113 ft 455 kts 343°
2026-05-06 00:39 28.42768 -69.82070 38109 ft 456 kts 343°
2026-05-06 00:40 28.49007 -69.83436 38111 ft 457 kts 343°
2026-05-06 00:40 28.55264 -69.84807 38112 ft 458 kts 343°
2026-05-06 00:41 28.61503 -69.86177 38111 ft 460 kts 343°
2026-05-06 00:41 28.67791 -69.87561 38109 ft 461 kts 343°
2026-05-06 00:42 28.74099 -69.88949 38113 ft 462 kts 343°
2026-05-06 00:42 28.80424 -69.90343 38111 ft 463 kts 342°
2026-05-06 00:43 28.86754 -69.91740 38109 ft 464 kts 342°
2026-05-06 00:43 28.93067 -69.93135 38110 ft 464 kts 342°
2026-05-06 00:44 28.99425 -69.94541 38113 ft 465 kts 342°
2026-05-06 00:44 29.05787 -69.95950 38111 ft 465 kts 342°
2026-05-06 00:45 29.12144 -69.97361 38110 ft 465 kts 342°
2026-05-06 00:45 29.18501 -69.98772 38112 ft 465 kts 342°
2026-05-06 00:46 29.24859 -70.00186 38109 ft 465 kts 342°
2026-05-06 00:46 29.31149 -70.01578 38113 ft 458 kts 342°
2026-05-06 00:47 29.37342 -70.02955 38113 ft 451 kts 342°
2026-05-06 00:47 29.43507 -70.04336 38120 ft 452 kts 342°
2026-05-06 00:48 29.49689 -70.05723 38124 ft 453 kts 341°
2026-05-06 00:48 29.55899 -70.07113 38119 ft 456 kts 342°
2026-05-06 00:49 29.62141 -70.08512 38123 ft 457 kts 341°
2026-05-06 00:49 29.68399 -70.09915 38122 ft 459 kts 341°
2026-05-06 00:50 29.74677 -70.11325 38123 ft 460 kts 342°
2026-05-06 00:50 29.80973 -70.12741 38119 ft 462 kts 341°
2026-05-06 00:51 29.87254 -70.14156 38121 ft 463 kts 341°
2026-05-06 00:51 29.93598 -70.15586 38122 ft 464 kts 341°
2026-05-06 00:52 29.99935 -70.17016 38119 ft 464 kts 341°
2026-05-06 00:52 30.06283 -70.18452 38119 ft 464 kts 341°
2026-05-06 00:53 30.12619 -70.19885 38120 ft 464 kts 341°
2026-05-06 00:53 30.18921 -70.21314 38121 ft 463 kts 341°
2026-05-06 00:54 30.25241 -70.22748 38120 ft 462 kts 341°
2026-05-06 00:54 30.31544 -70.24180 38118 ft 461 kts 342°
2026-05-06 00:55 30.37830 -70.25610 38125 ft 460 kts 342°
2026-05-06 00:55 30.44108 -70.27037 38116 ft 459 kts 342°
2026-05-06 00:56 30.50319 -70.28451 38118 ft 457 kts 342°
2026-05-06 00:56 30.56571 -70.29873 38124 ft 457 kts 342°
2026-05-06 00:57 30.62803 -70.31294 38117 ft 456 kts 342°
2026-05-06 00:57 30.69017 -70.32716 38118 ft 454 kts 342°
2026-05-06 00:58 30.75216 -70.34136 38121 ft 453 kts 342°
2026-05-06 00:58 30.81410 -70.35556 38119 ft 453 kts 342°
2026-05-06 00:59 30.87547 -70.36964 38122 ft 452 kts 342°
2026-05-06 00:59 30.93718 -70.38382 38128 ft 452 kts 342°
2026-05-06 01:00 30.99890 -70.39802 38129 ft 452 kts 342°
2026-05-06 01:00 31.06051 -70.41221 38129 ft 451 kts 343°
2026-05-06 01:01 31.12223 -70.42646 38132 ft 452 kts 343°
2026-05-06 01:01 31.18405 -70.44074 38131 ft 453 kts 343°
2026-05-06 01:02 31.24592 -70.45505 38128 ft 454 kts 343°
2026-05-06 01:02 31.30794 -70.46941 38132 ft 455 kts 343°
2026-05-06 01:03 31.36983 -70.48377 38127 ft 456 kts 343°
2026-05-06 01:03 31.43218 -70.49825 38128 ft 457 kts 343°
2026-05-06 01:04 31.49458 -70.51277 38132 ft 457 kts 343°
2026-05-06 01:04 31.55707 -70.52735 38127 ft 458 kts 343°
2026-05-06 01:05 31.61965 -70.54199 38130 ft 459 kts 343°
2026-05-06 01:05 31.68231 -70.55671 38126 ft 459 kts 343°
2026-05-06 01:06 31.74456 -70.57129 38131 ft 459 kts 343°
2026-05-06 01:06 31.80722 -70.58595 38128 ft 459 kts 343°
2026-05-06 01:07 31.86990 -70.60068 38125 ft 459 kts 343°
2026-05-06 01:07 31.93261 -70.61544 38130 ft 460 kts 343°
2026-05-06 01:08 31.99538 -70.63024 38130 ft 459 kts 343°
2026-05-06 01:08 32.05814 -70.64505 38129 ft 459 kts 344°
2026-05-06 01:09 32.12079 -70.65985 38130 ft 459 kts 344°
2026-05-06 01:09 32.18305 -70.67458 38131 ft 458 kts 344°
2026-05-06 01:10 32.24555 -70.68940 38130 ft 458 kts 344°
2026-05-06 01:10 32.30802 -70.70421 38128 ft 457 kts 344°
2026-05-06 01:11 32.37025 -70.71901 38130 ft 456 kts 344°
2026-05-06 01:11 32.43233 -70.73379 38128 ft 454 kts 344°
2026-05-06 01:12 32.49426 -70.74854 38129 ft 453 kts 344°
2026-05-06 01:12 32.55602 -70.76329 38128 ft 452 kts 344°
2026-05-06 01:13 32.61761 -70.77803 38127 ft 451 kts 344°
2026-05-06 01:13 32.67911 -70.79276 38128 ft 450 kts 344°
2026-05-06 01:14 32.77097 -70.81475 38130 ft 450 kts 344°
2026-05-06 01:14 32.83229 -70.82948 38131 ft 449 kts 344°
2026-05-06 01:15 32.89361 -70.84424 38128 ft 448 kts 344°
2026-05-06 01:15 32.95473 -70.85896 38130 ft 448 kts 344°
2026-05-06 01:16 33.01578 -70.87369 38127 ft 448 kts 344°
2026-05-06 01:16 33.07686 -70.88844 38128 ft 448 kts 344°
2026-05-06 01:17 33.12765 -70.90072 38119 ft 448 kts 344°
2026-05-06 01:17 33.19877 -70.91797 38121 ft 448 kts 344°
2026-05-06 01:18 33.24957 -70.93029 38123 ft 448 kts 344°
2026-05-06 01:18 33.31066 -70.94511 38117 ft 448 kts 345°
2026-05-06 01:19 33.37171 -70.95996 38124 ft 447 kts 345°